TimePST,TemperatureF,Dew PointF,Humidity,Sea Level PressureIn,VisibilityMPH,Wind Direction,Wind SpeedMPH,Gust SpeedMPH,PrecipitationIn,Events,Conditions,WindDirDegrees,DateUTC
12:56 AM,43.0,39.9,89,29.95,10.0,South,4.6,-,N/A,,Clear,180,2014-03-02 08:56:00
1:56 AM,42.1,39.9,92,29.95,10.0,East,4.6,-,N/A,,Clear,90,2014-03-02 09:56:00
2:56 AM,42.1,39.0,89,29.96,10.0,SSW,9.2,-,N/A,,Clear,200,2014-03-02 10:56:00
3:56 AM,39.9,37.9,93,29.99,10.0,SSW,3.5,-,N/A,,Clear,210,2014-03-02 11:56:00
4:56 AM,37.0,37.0,100,30.02,10.0,Calm,Calm,-,N/A,,Clear,0,2014-03-02 12:56:00
5:56 AM,37.9,37.0,97,30.04,10.0,SE,3.5,-,N/A,,Clear,140,2014-03-02 13:56:00
6:56 AM,39.9,39.0,97,30.04,10.0,Calm,Calm,-,N/A,,Clear,0,2014-03-02 14:56:00
7:56 AM,44.1,41.0,89,30.09,10.0,SSW,3.5,-,N/A,,Mostly Cloudy,210,2014-03-02 15:56:00
8:56 AM,48.0,42.1,80,30.11,10.0,SSW,5.8,-,N/A,,Clear,210,2014-03-02 16:56:00
9:56 AM,51.1,43.0,74,30.10,10.0,Calm,Calm,-,N/A,,Clear,0,2014-03-02 17:56:00
10:56 AM,53.1,42.1,66,30.11,10.0,East,4.6,-,N/A,,Clear,90,2014-03-02 18:56:00
11:56 AM,54.0,43.0,66,30.09,10.0,Variable,4.6,-,N/A,,Clear,0,2014-03-02 19:56:00
12:56 PM,57.0,44.1,62,30.06,10.0,SE,6.9,-,N/A,,Clear,140,2014-03-02 20:56:00
1:56 PM,59.0,44.1,58,30.04,10.0,Variable,5.8,-,N/A,,Partly Cloudy,0,2014-03-02 21:56:00
2:56 PM,59.0,45.0,60,30.03,10.0,South,18.4,23.0,N/A,,Scattered Clouds,180,2014-03-02 22:56:00
3:56 PM,59.0,43.0,55,30.04,10.0,South,15.0,-,N/A,,Clear,190,2014-03-02 23:56:00
4:56 PM,57.9,41.0,53,30.04,10.0,SSW,13.8,-,N/A,,Clear,210,2014-03-03 00:56:00
5:56 PM,57.0,43.0,59,30.05,10.0,SSW,11.5,-,N/A,,Scattered Clouds,200,2014-03-03 01:56:00
6:56 PM,55.0,42.1,62,30.07,10.0,SSW,8.1,-,N/A,,Partly Cloudy,200,2014-03-03 02:56:00
7:56 PM,53.1,42.1,66,30.08,10.0,SSW,6.9,-,N/A,,Clear,210,2014-03-03 03:56:00
8:56 PM,52.0,43.0,71,30.09,10.0,WSW,6.9,-,N/A,,Clear,250,2014-03-03 04:56:00
9:56 PM,51.1,43.0,74,30.09,10.0,SE,3.5,-,N/A,,Clear,130,2014-03-03 05:56:00
10:56 PM,48.9,43.0,80,30.11,10.0,SSE,6.9,-,N/A,,Clear,160,2014-03-03 06:56:00
11:56 PM,46.0,43.0,89,30.12,10.0,Calm,Calm,-,N/A,,Clear,0,2014-03-03 07:56:00